STARLINK-30261 (57523 NORAD) Tracking and Keplerian Element Data

This shows tracking and keplerian element data for the satellite.

Feedback or suggestion? Click here.




ElementValue
Catalog57523
NameSTARLINK-30261
Epoch Orbit2500
Epoch Day13.2017913
Epoch Year2024
RAAN318.4963
Inclination43.0034
Eccentricity7.71E-05
Argument of Perigee271.1051
Mean Anonmoly88.9703
Mean Motion15.02542865
Decay Rate0.00010551
L11 57523U 23115C 24013.20179130 .00010551 00000+0 79484-3 0 9993
L22 57523 43.0034 318.4963 0000771 271.1051 88.9703 15.02542865 25004



Live tracking and technical data element details for STARLINK-30261 (NORAD 57523). STARLINK-30261 can be tracked NOW for your location showing map with azimuth and elevation plus other details from your city location.







IsCatalogInMostPopularTable: catalog: 57523, numindb: 22
Update: records affected: 1



GetName: 57523 STARLINK-30261

Hit Count: updated at: Thu, 29 Feb 2024 11:22:40 GMT